Simultaneous Nadir Overpasses (SNOs) Predictions

Prediction of SNOs between GOES-17 and LANDSAT-8 Satellite Orbit:

Table of predicted SNOs for the next 14.0 days since TLE Epoch: 10/8/2022
Index Date Time (GOES-17) GOES-17 Lat,Lon LANDSAT-8 Lat,Lon Distance(km) Time Diff (sec)
1 10/08/2022 07:38:22 0.06,-137.32 -0.73,-140.94 411.65 80
2 10/10/2022 07:26:10 0.06,-137.31 -0.11,-137.97 75.68 80
3 10/12/2022 07:11:17 0.06,-137.30 0.53,-135.01 259.97 80
4 10/12/2022 19:32:31 -0.06,-137.29 0.56,-140.16 326.44 80
5 10/14/2022 19:22:58 -0.06,-137.27 -0.10,-137.20 8.86 80
6 10/16/2022 19:10:44 -0.05,-137.24 -0.71,-134.23 342.77 80
7 10/17/2022 07:32:07 0.05,-137.23 -0.43,-139.41 248.22 80
8 10/19/2022 07:17:13 0.04,-137.20 0.21,-136.45 85.63 80
9 10/21/2022 07:04:58 0.04,-137.16 0.80,-133.47 419.15 80
10 10/21/2022 19:26:13 -0.04,-137.15 0.29,-138.62 167.91 80
